Regional Weather Roundup
Issued by NWS

Home | Current Version | Previous Version | Graphics & Text | Print | Product List | Glossary On
Versions: 1 2 3 4 5 6 7 8 9 10 11 12 13 14 15 16 17 18 19 20 21 22 23 24 25 26 27 28 29 30 31 32 33 34 35 36 37 38 39 40 41 42 43 44 45 46 47 48 49 50
000
ASUS43 KLSX 231107
RWRMO

WEATHER SUMMARY FOR MISSOURI
NATIONAL WEATHER SERVICE SPRINGFIELD MO
600 AM CDT TUE MAY 23 2017

NOTE: "FAIR" INDICATES FEW OR NO CLOUDS BELOW 12,000 FEET WITH NO
       SIGNIFICANT WEATHER AND/OR OBSTRUCTIONS TO VISIBILITY.
       CURRENT SKY AND/OR WEATHER CONDITIONS ARE NOT AVAILABLE FOR
       CHILLICOTHE AND FARMINGTON.

MOZ001>031-035>038-043-044-053-054-231200-
...NORTHERN AND WESTERN MISSOURI...

CITY           SKY/WX    TMP DP  RH WIND       PRES   REMARKS
KANSAS CTY INT CLOUDY    56  55  97 N8        29.85F
KANSAS C DTWN  CLOUDY    58  56  93 W6        29.85F
LEE`S SUMMIT   CLOUDY    55  55 100 NW6       29.85F FOG
ST JOSEPH      CLOUDY    54  52  93 N10       29.88S
CHILLICOTHE      N/A     57  56  96 NW6       29.85S
KIRKSVILLE     CLOUDY    57  56  96 W8        29.83F

$$
MOZ066>068-077>081-088>096-101>105-231200-
...SOUTHWEST MISSOURI...

CITY           SKY/WX    TMP DP  RH WIND       PRES   REMARKS
SPRINGFIELD    CLOUDY    58  57  97 S3        29.83S
JOPLIN         CLOUDY    60  58  92 W6        29.86R
BRANSON        CLOUDY    59  57  94 CALM      29.85F

$$
MOZ032>034-039>042-045>050-055>058-069>072-231200-
...CENTRAL MISSOURI...

CITY           SKY/WX    TMP DP  RH WIND       PRES   REMARKS
COLUMBIA       RAIN      57  56  96 E3        29.82F FOG
JEFFERSON CITY LGT RAIN  59  55  87 N3        29.82S
ROLLA          MOCLDY    56  54  93 SW7       29.81S
SEDALIA        CLOUDY    57  57 100 N3        29.84F
WHITEMAN AFB   MOCLDY    55  55 100 N5        29.83S
WARRENSBURG    CLOUDY    54  54 100 CALM      29.84S
OSAGE BEACH    CLOUDY    57  56  96 CALM      29.83S

$$
MOZ051-052-059>065-231200-
...EAST CENTRAL MISSOURI...

CITY           SKY/WX    TMP DP  RH WIND       PRES   REMARKS
ST LOUIS INTL  CLOUDY    63  56  78 E8        29.82F
SPIRIT OF STL  CLOUDY    60  58  92 CALM      29.81F
ST CHARLES     CLOUDY    60  57  89 E5        29.81F

$$
MOZ072>076-082>087-097>100-106>115-231200-
...SOUTH CENTRAL AND SOUTHEAST MISSOURI...

CITY           SKY/WX    TMP DP  RH WIND       PRES   REMARKS
CAPE GIRARDEAU CLOUDY    57  54  89 CALM      29.82F
FARMINGTON     CLOUDY    57  54  89 CALM      29.83F
POPLAR BLUFF   CLOUDY    58  57  97 CALM      29.81F
WEST PLAINS    CLOUDY    59  52  77 SW6       29.84F

$$



USA.gov is the U.S. government's official web portal to all federal, state and local government web resources and services.